TimeCDT,TemperatureF,Dew PointF,Humidity,Sea Level PressureIn,VisibilityMPH,Wind Direction,Wind SpeedMPH,Gust SpeedMPH,PrecipitationIn,Events,Conditions,WindDirDegrees,DateUTC
12:15 AM,68.0,64.6,89,30.11,10.0,Calm,Calm,-,N/A,,Clear,0,2013-10-02 05:15:00
12:35 AM,65.5,62.2,89,30.11,10.0,Calm,Calm,-,N/A,,Clear,0,2013-10-02 05:35:00
12:55 AM,65.5,62.1,89,30.11,10.0,Calm,Calm,-,N/A,,Clear,0,2013-10-02 05:55:00
1:15 AM,66.9,63.7,89,30.11,10.0,Calm,Calm,-,N/A,,Clear,0,2013-10-02 06:15:00
1:35 AM,68.0,64.8,89,30.12,10.0,Calm,Calm,-,N/A,,Clear,0,2013-10-02 06:35:00
1:55 AM,67.1,63.9,89,30.11,10.0,Calm,Calm,-,N/A,,Clear,0,2013-10-02 06:55:00
2:15 AM,65.5,62.2,89,30.11,10.0,Calm,Calm,-,N/A,,Clear,0,2013-10-02 07:15:00
2:35 AM,63.5,60.3,89,30.11,10.0,Calm,Calm,-,N/A,,Clear,0,2013-10-02 07:35:00
2:55 AM,65.5,62.2,89,30.11,10.0,Calm,Calm,-,N/A,,Clear,0,2013-10-02 07:55:00
3:15 AM,65.5,62.6,90,30.11,10.0,Calm,Calm,-,N/A,,Clear,0,2013-10-02 08:15:00
3:35 AM,65.5,62.2,89,30.11,10.0,Calm,Calm,-,N/A,,Clear,0,2013-10-02 08:35:00
3:55 AM,65.5,62.2,89,30.11,10.0,Calm,Calm,-,N/A,,Clear,0,2013-10-02 08:55:00
4:15 AM,65.3,62.1,89,30.11,10.0,Calm,Calm,-,N/A,,Clear,0,2013-10-02 09:15:00
4:35 AM,65.5,62.2,89,30.12,10.0,Calm,Calm,-,N/A,,Clear,0,2013-10-02 09:35:00
4:55 AM,65.5,62.1,89,30.12,10.0,Calm,Calm,-,N/A,,Clear,0,2013-10-02 09:55:00
5:15 AM,64.6,61.0,88,30.12,10.0,Calm,Calm,-,N/A,,Clear,0,2013-10-02 10:15:00
5:35 AM,62.8,59.5,89,30.13,10.0,Calm,Calm,-,N/A,,Clear,0,2013-10-02 10:35:00
5:55 AM,63.5,59.9,88,30.13,10.0,Calm,Calm,-,N/A,,Clear,0,2013-10-02 10:55:00
6:15 AM,63.5,59.9,88,30.14,10.0,Calm,Calm,-,N/A,,Clear,0,2013-10-02 11:15:00
6:35 AM,64.4,60.8,88,30.14,10.0,Calm,Calm,-,N/A,,Clear,0,2013-10-02 11:35:00
6:55 AM,65.5,61.7,88,30.14,10.0,Calm,Calm,-,N/A,,Clear,0,2013-10-02 11:55:00
7:15 AM,64.6,60.6,87,30.14,10.0,Calm,Calm,-,N/A,,Clear,0,2013-10-02 12:15:00
7:35 AM,65.5,61.7,88,30.15,10.0,Calm,Calm,-,N/A,,Clear,0,2013-10-02 12:35:00
7:55 AM,65.5,61.5,87,30.16,10.0,Calm,Calm,-,N/A,,Clear,0,2013-10-02 12:55:00
8:15 AM,68.0,63.5,85,30.16,10.0,Calm,Calm,-,N/A,,Clear,0,2013-10-02 13:15:00
8:35 AM,68.0,63.1,84,30.17,10.0,Calm,Calm,-,N/A,,Clear,0,2013-10-02 13:35:00
8:55 AM,70.7,64.4,80,30.17,10.0,Calm,Calm,-,N/A,,Clear,0,2013-10-02 13:55:00
9:15 AM,71.4,62.8,74,30.17,10.0,Calm,Calm,-,N/A,,Clear,0,2013-10-02 14:15:00
9:35 AM,75.6,65.3,70,30.17,10.0,East,3.5,-,N/A,,Clear,90,2013-10-02 14:35:00
9:55 AM,77.7,64.6,64,30.17,10.0,Calm,Calm,-,N/A,,Clear,0,2013-10-02 14:55:00
10:15 AM,78.1,62.8,59,30.17,10.0,Calm,Calm,-,N/A,,Clear,0,2013-10-02 15:15:00
10:35 AM,78.4,61.2,55,30.17,10.0,Calm,Calm,-,N/A,,Clear,0,2013-10-02 15:35:00
10:55 AM,80.6,61.5,52,30.16,10.0,Calm,Calm,-,N/A,,Clear,0,2013-10-02 15:55:00
11:15 AM,80.6,60.6,50,30.16,10.0,Calm,Calm,-,N/A,,Clear,0,2013-10-02 16:15:00
11:35 AM,81.3,61.0,50,30.16,10.0,ESE,4.6,-,N/A,,Clear,110,2013-10-02 16:35:00
11:55 AM,81.9,60.4,48,30.15,10.0,ESE,4.6,-,N/A,,Clear,110,2013-10-02 16:55:00
12:15 PM,83.3,60.4,46,30.14,10.0,NE,5.8,-,N/A,,Clear,50,2013-10-02 17:15:00
12:35 PM,83.5,60.6,46,30.13,10.0,East,6.9,-,N/A,,Clear,90,2013-10-02 17:35:00
12:55 PM,83.3,61.2,47,30.13,10.0,East,4.6,-,N/A,,Scattered Clouds,100,2013-10-02 17:55:00
1:15 PM,83.8,59.5,44,30.11,10.0,ESE,5.8,-,N/A,,Scattered Clouds,120,2013-10-02 18:15:00
1:35 PM,84.6,60.8,45,30.11,10.0,SSE,3.5,-,N/A,,Scattered Clouds,160,2013-10-02 18:35:00
1:55 PM,83.3,59.2,44,30.11,10.0,Calm,Calm,-,N/A,,Scattered Clouds,0,2013-10-02 18:55:00
2:15 PM,83.3,60.8,46,30.09,10.0,Calm,Calm,-,N/A,,Clear,0,2013-10-02 19:15:00
2:35 PM,83.3,60.6,46,30.09,10.0,ENE,3.5,-,N/A,,Clear,70,2013-10-02 19:35:00
2:55 PM,83.3,60.4,46,30.09,10.0,East,3.5,-,N/A,,Clear,90,2013-10-02 19:55:00
3:15 PM,83.3,60.6,46,30.08,10.0,East,4.6,-,N/A,,Clear,100,2013-10-02 20:15:00
3:35 PM,83.3,61.5,48,30.08,10.0,East,3.5,-,N/A,,Clear,90,2013-10-02 20:35:00
3:55 PM,83.3,61.7,48,30.07,10.0,East,3.5,-,N/A,,Clear,90,2013-10-02 20:55:00
4:15 PM,82.6,61.3,48,30.07,10.0,East,3.5,-,N/A,,Clear,80,2013-10-02 21:15:00
4:35 PM,82.8,64.4,54,30.07,10.0,Calm,Calm,-,N/A,,Clear,0,2013-10-02 21:35:00
4:55 PM,82.0,65.1,56,30.07,10.0,Calm,Calm,-,N/A,,Clear,0,2013-10-02 21:55:00
5:15 PM,80.6,65.5,60,30.08,10.0,Calm,Calm,-,N/A,,Clear,0,2013-10-02 22:15:00
5:35 PM,80.2,70.2,71,30.07,10.0,Calm,Calm,-,N/A,,Clear,0,2013-10-02 22:35:00
5:55 PM,78.1,69.4,75,30.08,10.0,Calm,Calm,-,N/A,,Clear,0,2013-10-02 22:55:00
6:15 PM,78.1,71.8,81,30.08,10.0,Calm,Calm,-,N/A,,Clear,0,2013-10-02 23:15:00
6:35 PM,75.6,68.7,79,30.09,10.0,Calm,Calm,-,N/A,,Clear,0,2013-10-02 23:35:00
6:55 PM,75.6,70.0,83,30.09,10.0,Calm,Calm,-,N/A,,Clear,0,2013-10-02 23:55:00
7:15 PM,75.6,70.7,85,30.09,10.0,Calm,Calm,-,N/A,,Clear,0,2013-10-03 00:15:00
7:35 PM,75.6,70.9,85,30.09,10.0,Calm,Calm,-,N/A,,Clear,0,2013-10-03 00:35:00
7:55 PM,75.6,70.7,85,30.09,10.0,Calm,Calm,-,N/A,,Clear,0,2013-10-03 00:55:00
8:15 PM,75.6,71.6,87,30.11,10.0,Calm,Calm,-,N/A,,Clear,0,2013-10-03 01:15:00
8:35 PM,73.0,69.3,88,30.11,10.0,Calm,Calm,-,N/A,,Clear,0,2013-10-03 01:35:00
8:55 PM,71.2,67.6,88,30.11,10.0,Calm,Calm,-,N/A,,Clear,0,2013-10-03 01:55:00
9:15 PM,71.8,68.4,89,30.11,10.0,Calm,Calm,-,N/A,,Clear,0,2013-10-03 02:15:00
9:35 PM,71.2,67.6,88,30.12,10.0,Calm,Calm,-,N/A,,Clear,0,2013-10-03 02:35:00
9:55 PM,70.7,67.1,88,30.13,10.0,Calm,Calm,-,N/A,,Clear,0,2013-10-03 02:55:00
10:15 PM,70.7,67.1,88,30.13,10.0,Calm,Calm,-,N/A,,Clear,0,2013-10-03 03:15:00
10:35 PM,70.7,66.9,88,30.13,10.0,Calm,Calm,-,N/A,,Clear,0,2013-10-03 03:35:00
10:55 PM,70.7,67.1,88,30.13,10.0,Calm,Calm,-,N/A,,Clear,0,2013-10-03 03:55:00
11:15 PM,70.7,67.3,89,30.13,7.0,Calm,Calm,-,N/A,,Clear,0,2013-10-03 04:15:00
11:35 PM,70.7,67.1,88,30.12,10.0,Calm,Calm,-,N/A,,Clear,0,2013-10-03 04:35:00
11:55 PM,70.7,67.1,88,30.12,7.0,Calm,Calm,-,N/A,,Clear,0,2013-10-03 04:55:00